Skip Page Navigation
NASA JPL Caltech
NASA Logo - Jet Propulsion Laboratory + View the NASA Portal
+ Center for Near-Earth Object Studies
JPL Home Earth Solar System Stars & Galaxies Technology
JPL Solar System Dynamics
BODIES ORBITS EPHEMERIDES TOOLS PHYSICAL DATA DISCOVERY FAQ SITE MAP
JPL Small-Body Database Browser
Search: [ help ]  
103305 (2000 AO53)
Classification: Main-belt Asteroid          SPK-ID: 2103305
Ephemeris | Orbit Diagram | Orbital Elements | Mission Design | Physical Parameters | Discovery Circumstances | Close-Approach Data ]

[ show orbit diagram ]
Orbital Elements at Epoch 2459200.5 (2020-Dec-17.0) TDB
Reference: JPL 25 (heliocentric ecliptic J2000)
 Element Value Uncertainty (1-sigma)   Units 
e .136565026737262 3.5096e-08  
a 2.664848922887538 1.3418e-08 au
q 2.300923758482637 9.2503e-08 au
i 1.376912769797496 3.5293e-06 deg
node 318.9333600742426 0.00017671 deg
peri 209.4653671622753 0.00017746 deg
M 244.5236244646766 1.8893e-05 deg
tp 2459710.180431188130
(2022-May-10.68043119)
8.5693e-05 TDB
period 1588.939333929821
4.35
1.2001e-05
3.286e-08
d
yr
n .2265662334065551 1.7112e-09 deg/d
Q 3.028774087292438 1.525e-08 au
  Orbit Determination Parameters
   # obs. used (total)      997  
   data-arc span      10483 days (28.70 yr)  
   first obs. used      1992-04-25  
   last obs. used      2021-01-06  
   planetary ephem.      DE431  
   SB-pert. ephem.      SB431-N16  
   condition code      0  
   norm. resid. RMS      .48782  
   source      ORB  
   producer      Otto Matic  
   solution date      2021-Feb-24 08:34:05  

Additional Information
 Earth MOID = 1.30721 au 
 Jupiter MOID = 1.94392 au 
 T_jup = 3.370 
[ show covariance matrix ]

Ephemeris | Orbit Diagram | Orbital Elements | Mission Design | Physical Parameters | Discovery Circumstances | Close-Approach Data ]

Physical Parameter Table
Parameter Symbol Value Units Sigma Reference Notes
absolute magnitude H 15.3   n/a MPO302569  
diameter diameter 4.990 km 0.091 urn:nasa:pds:neowise_diameters_albedos::2.0[mainbelt] (http://adsabs.harvard.edu/abs/2011ApJ...741...68M)  
geometric albedo albedo 0.065   0.009 urn:nasa:pds:neowise_diameters_albedos::2.0[mainbelt] (http://adsabs.harvard.edu/abs/2011ApJ...741...68M)  

103305 (2000 AO53)          Discovered 2000-Jan-04 by LINEAR at Socorro
Reference: 20051019/Numbers.arcLast Updated: 2005-10-26

[ show close-approach data ]
Alternate Designations
 2000 AO53 = 1992 HD6 
Ephemeris | Orbit Diagram | Orbital Elements | Mission Design | Physical Parameters | Discovery Circumstances | Close-Approach Data ]
ABOUT SSD CREDITS/AWARDS PRIVACY/COPYRIGHT GLOSSARY LINKS
FirstGov 2021-Mar-04 19:49 UT
(server date/time)  
NASA Home Page
Site Manager:   Ryan S. Park
Webmaster  Alan B. Chamberlin